Regional Weather Roundup
Issued by NWS

Home | Current Version | Previous Version | Text Only | Print | Product List | Glossary On
Versions: 1 2 3 4 5 6 7 8 9 10 11 12 13 14 15 16 17 18 19 20 21 22 23 24 25 26 27 28 29 30 31 32 33 34 35 36 37 38 39 40 41 42 43 44 45 46 47 48 49 50
000
ASUS43 KDMX 010008
RWRIA

WEATHER ROUNDUP FOR IOWA
NATIONAL WEATHER SERVICE DES MOINES IA
700 PM CDT TUE MAY 31 2016

NOTE: "FAIR" INDICATES FEW OR NO CLOUDS BELOW 12,000 FEET WITH NO
SIGNIFICANT WEATHER AND/OR OBSTRUCTIONS TO VISIBILITY.

* - THESE STATIONS ARE NOT NWS STATIONS...THUS NOT UNDER NWS
QUALITY CONTROL.  THEY ALSO DO NOT REPORT WEATHER SUCH
AS PRECIPITATION OR FOG.

IAZ001>003-012>014-020>022-031>034-043>046-010100-
   NORTHWEST IOWA

CITY           SKY/WX    TMP DP  RH WIND       PRES   REMARKS
CARROLL *      SUNNY     73  50  43 NW7G14    29.90R
CHEROKEE *     SUNNY     71  46  40 W7        29.90R
DENISON *      SUNNY     73  50  43 N3        29.89S
LE MARS *      SUNNY     73  48  40 SW10      29.90S
ORANGE CITY *  SUNNY     72  48  43 W10       29.89S
SHELDON *      SUNNY     72  48  43 W13       29.87S
SIOUX CITY     SUNNY     76  47  35 W5        29.90S
6HR MIN TEMP:  72; 6HR MAX TEMP:  77;

SPENCER        SUNNY     72  48  42 W8        29.89R
6HR MIN TEMP:  64; 6HR MAX TEMP:  73;

STORM LAKE *   SUNNY     72  48  43 W6        29.91R
$$

IAZ055>058-069>071-079>083-090>094-010100-
   SOUTHWEST IOWA

CITY           SKY/WX    TMP DP  RH WIND       PRES   REMARKS
ATLANTIC *     SUNNY     73  59  60 N6        29.91R
AUDUBON *      SUNNY     72  57  60 NW6       29.92R
CLARINDA *       N/A     75  63  64 MISG      29.92R
COUNCIL BLFS * SUNNY     73  54  49 N6        29.92R
CRESTON *      SUNNY     72  63  73 N6        29.92R
HARLAN  *      SUNNY     73  50  43 NW8       29.95R
LAMONI         LGT RAIN  68  64  87 N10       29.90R
6HR MIN TEMP:  68; 6HR MAX TEMP:  76; 6HR PCP: TRACE;

RED OAK *      MOSUNNY   75  61  60 VRB7      29.91R
SHENANDOAH *   MOSUNNY   77  61  57 NW6       29.91S
$$

IAZ047>049-059>061-072>074-084-010100-
   CENTRAL IOWA

CITY           SKY/WX    TMP DP  RH WIND       PRES   REMARKS
AMES           CLOUDY    69  65  86 VRB3      29.89S
6HR MIN TEMP:  65; 6HR MAX TEMP:  78; 6HR PCP:  0.32;

ANKENY *       SUNNY     70  66  88 MISG      29.89S
BOONE *        SUNNY     70  63  78 N6        29.89R
CHARITON *     MOSUNNY   68  63  83 W7        29.89F
DES MOINES     CLOUDY    72  63  73 CALM      29.89F
6HR MIN TEMP:  67; 6HR MAX TEMP:  81; 6HR PCP:  0.66;

GRINNELL*      CLOUDY    68  63  83 CALM      29.91R
KNOXVILLE *    PTSUNNY   66  61  82 NW10      29.88S
MARSHALLTOWN   CLOUDY    66  63  90 CALM      29.88F
6HR MIN TEMP:  65; 6HR MAX TEMP:  80; 6HR PCP:  0.37;

NEWTON *       CLOUDY    66  66 100 CALM      29.89R FOG
PERRY *          N/A     73  63  68 N6        29.89S
$$

IAZ004>006-015-016-023>025-035-036-010100-
   NORTH CENTRAL IOWA

CITY           SKY/WX    TMP DP  RH WIND       PRES   REMARKS
ALGONA *       SUNNY     72  55  56 W8        29.89S
CLARION *      SUNNY     70  59  68 NW6       29.89S
ESTHERVILLE    SUNNY     71  52  50 W8        29.88S
6HR MIN TEMP:  63; 6HR MAX TEMP:  72; 6HR PCP: TRACE;

FORT DODGE *   CLOUDY    73  55  53 CALM      29.90S
MASON CITY     CLOUDY    68  60  75 W5        29.90R
6HR MIN TEMP:  64; 6HR MAX TEMP:  74; 6HR PCP:  0.44;

FOREST CITY *  SUNNY     68  59  73 W3        29.88S
WEBSTER CITY * SUNNY     72  59  64 NW3       29.88R
IOWA FALLS *     N/A     70  63  78 CALM      29.91S
$$

IAZ007>011-017>019-026>030-037>042-050>054-066-010100-
   NORTHEAST IOWA

CITY           SKY/WX    TMP DP  RH WIND       PRES   REMARKS
CEDAR RAPIDS   LGT RAIN  73  63  70 S7G21     29.87S
6HR MIN TEMP:  73; 6HR MAX TEMP:  80; 6HR PCP: TRACE;

CHARLES CITY * MOSUNNY   66  66 100 SE7       29.89S
CLINTON *      CLOUDY    73  66  78 SE10      29.91S
DECORAH *      LGT RAIN  63  63 100 CALM      29.90R
DUBUQUE        CLOUDY    71  63  75 SE13      29.90S
6HR MIN TEMP:  69; 6HR MAX TEMP:  73;

MONTICELLO *   PTSUNNY   75  63  64 SE14      29.88S
OELWEIN *      DRIZZLE   64 N/A N/A NW7       29.91F
WATERLOO       LGT RAIN  65  63  93 E3        29.89F
6HR MIN TEMP:  64; 6HR MAX TEMP:  81; 6HR PCP:  0.63;

$$

IAZ064-065-067-068-078-010100-
   EAST CENTRAL IOWA

CITY           SKY/WX    TMP DP  RH WIND       PRES   REMARKS
DAVENPORT      CLOUDY    74  62  66 S13       29.90F
6HR MIN TEMP:  74; 6HR MAX TEMP:  80; 6HR PCP: TRACE;

IOWA CITY      CLOUDY    79  60  52 S14       29.88S HX  80
6HR MIN TEMP:  77; 6HR MAX TEMP:  81;

MT. PLEASANT * MOSUNNY   81  62  52 S5        29.88S HX  82
MUSCATINE *    PTSUNNY   75  63  64 SE6       29.88S
QUAD CITIES    CLOUDY    72  66  81 E3        29.89F
6HR MIN TEMP:  71; 6HR MAX TEMP:  81; 6HR PCP:  0.07;

$$

IAZ062-063-075>077-085>089-095>099-010100-
   SOUTHEAST IOWA

CITY           SKY/WX    TMP DP  RH WIND       PRES   REMARKS
BURLINGTON     MOSUNNY   78  63  59 S8        29.88S HX  80
6HR MIN TEMP:  77; 6HR MAX TEMP:  81;

FAIRFIELD *      N/A    N/A N/A N/A MISG        N/A
FORT MADISON * SUNNY     81  63  54 S3        29.89S HX  82
KEOKUK *       SUNNY     79  64  61 SE7       29.87S HX  81
OSKALOOSA *    HVY RAIN  64  61  88 SW29G36   29.90R
OTTUMWA        CLOUDY    75  63  66 S6        29.87R THUNDER
6HR MIN TEMP:  74; 6HR MAX TEMP:  80;

WASHINGTON *   SUNNY     79 -33   1 S6        29.89S
$$

ABBREVIATIONS USED IN REMARKS
   TC - TEMPERATURES IN CELSIUS
  WCI - WIND CHILL INDEX
   HX - HEAT INDEX
  VSB - VISIBILITY
$$




USA.gov is the U.S. government's official web portal to all federal, state and local government web resources and services.